This is the latest recevied weather packets stored in our database for station/object YD2CLX-17. If no packets are shown the sender has not sent any weather packets the latest 10 day(s).
| Time | Temp. | Humidity | Pressure | Rain* | Wind** | Luminosity | Snow |
|---|---|---|---|---|---|---|---|
| 1788627639 | 22.78° C | 79% | 1017 hPa | 0 mm | - | - | - |
| 1788626726 | 22.78° C | 79% | 1017 hPa | 0 mm | - | - | - |
| 1788625829 | 22.78° C | 79% | 1017 hPa | 0 mm | - | - | - |
| 1788624928 | 22.78° C | 79% | 1018 hPa | 0 mm | - | - | - |
| 1788624040 | 22.78° C | 79% | 1018 hPa | 0 mm | - | - | - |
| 1788623129 | 22.78° C | 79% | 1018 hPa | 0 mm | - | - | - |
| 1788622237 | 22.78° C | 79% | 1018 hPa | 0 mm | - | - | - |
| 1788621330 | 22.78° C | 79% | 1018 hPa | 0 mm | - | - | - |
| 1788620440 | 22.78° C | 79% | 1018 hPa | 0 mm | - | - | - |
| 1788619524 | 22.78° C | 79% | 1018 hPa | 0 mm | - | - | - |
| 1788618627 | 22.78° C | 79% | 1018 hPa | 0 mm | - | - | - |
| 1788617727 | 22.78° C | 79% | 1018 hPa | 0 mm | - | - | - |
| 1788616837 | 25° C | 83% | 1018 hPa | 0 mm | - | - | - |
| 1788615928 | 25.56° C | 84% | 1018 hPa | 0 mm | - | - | - |
| 1788615031 | 23.33° C | 79% | 1018 hPa | 0 mm | - | - | - |
| 1788614127 | 23.33° C | 79% | 1018 hPa | 0 mm | - | - | - |
| 1788613238 | 25° C | 83% | 1018 hPa | 0 mm | - | - | - |
| 1788612324 | 25° C | 81% | 1018 hPa | 0 mm | - | - | - |
| 1788611432 | 23.89° C | 82% | 1018 hPa | 0 mm | - | - | - |
| 1788610526 | 25.56° C | 76% | 1017 hPa | 0 mm | - | - | - |
| 1788609641 | 25.56° C | 78% | 1017 hPa | 0 mm | - | - | - |
| 1788608729 | 25.56° C | 78% | 1017 hPa | 0 mm | - | - | - |
| 1788607826 | 24.44° C | 70% | 1017 hPa | 0 mm | - | - | - |
| 1788606931 | 24.44° C | 70% | 1016 hPa | 0 mm | - | - | - |
| 1788606026 | 24.44° C | 70% | 1016 hPa | 0 mm | - | - | - |
* Rain latest hour (hover to see other rain measurements)
** Current wind speed in m/s (hover to see current wind gust speed)